Location: Avebury
(53.1487°N, 106.9774°W)
Time: 13:25:28
(UTC+00:00)

Envisat - Pass Details

Date: 18 January 2022
Orbit: 764 x 765 km, 98.2° (Epoch: 22 May)

Event Time Altitude Azimuth Distance (km) Brightness Sun altitude
Rises 14:12:38 0° 6° (N) 3,245 6.1 -8.5°
Reaches altitude 10° 14:15:47 10° 345° (NNW) 2,314 5.1 -8.1°
Maximum altitude 14:18:45 16° 309° (NW) 1,933 4.5 -7.7°
Drops below altitude 10° 14:21:43 10° 273° (W) 2,306 4.9 -7.3°
Sets 14:24:52 0° 252° (WSW) 3,228 5.8 -6.8°
